Espace membre
Imprimable
Challenges > Delhalle - Chatelet, 17/05/2009, BEL - La Châtelettaine
Liste des rapports > Delhalle - 14km - Classement final
Recherche: Page: [1]
132 Entrées
 
Les réclamations ne sont plus acceptées, les résultats sont considérés comme définitifs.
RangNrNomAgeIOCLigueEquipeRéelTempsTkmMoy.ScrPtsLocalité
1.2032HENIN Didier51BELESM/FLEURUS54:0454:063:52 15.589965CHÂTELET
2.11DUBOIS Michel52BELHERV54:1954:213:53 15.5111959WELKENRAEDT
3.921ROSSI Claude51BELJOGGPLUS55:1755:193:57 15.2416939YVOIR
4.205RASSART Patrick51BELACLO58:3158:374:11 14.3842866MORLANWELZ
5.2244BRIFFAULT Jacques56FRAJC VIMOUTIER58:5859:004:12 14.2947856VIMOUTIERS
6.515GIULIANI Fernando58BELUACBOUFFIOLS59:2759:314:15 14.1653844BOUFFIOULX
7.2324ROSITANO Franco55BEL59:4159:464:16 14.1056838
8.467LENAERS Charles D.50BEL1:00:081:00:084:17 14.0259829LIEGE
9.2035BILON Eusebio56BELESM1:00:151:00:234:18 13.9661825
10.714MAILIER Christian53BELCRACESM1:00:371:00:424:20 13.8964818ROUX
11.1322LEFEBVRE Daniel54BELETCHIEVR1:00:541:01:044:21 13.8066812CHIEVRES
12.1171HANUS Michel51BELUACDILAVILE1:01:311:01:384:24 13.6873797ROSELIES
13.1552THIELTGEN Eric50BELHRC1:01:471:01:524:25 13.6374792NOBRESSART
14.497WYNS Jos57BELHULSHEISTSE BE1:01:501:01:574:25 13.6175791HALLAAR
15.519VANTSIOTIS Anasthase56BELFLEU1:02:041:02:124:26 13.5577786LE ROUX
16.2236BOZ Renzo58BEL1:02:041:02:134:26 13.5578785ZELEM
17.2282EBERTZHEIM Alain58BELJC HSH1:02:091:02:144:26 13.5579783MONCEAU
18.1337AUBERT Serge54BEL1:02:391:02:504:29 13.4286771GERPINNES
19.2206PONCELET Jose59BELC.R.T.1:02:491:02:534:29 13.4187768NEUVILLE
20.2289DA CRUZ Jean53BEL1:02:511:03:084:30 13.3591764NAMUR
21.146VAN NEVEL Frans55BELBEHO1:03:251:03:324:32 13.27100750BRUGGE
22.692ROBERT Michel59BELBOUFFIOLS1:04:121:04:304:36 13.07111731GERPINNES
23.2290IGO Michel51BELUACDILAVILE1:04:241:04:314:36 13.07113726VELAINE/S/SAMBR
24.2014DEMIERBE Freddy55BEL1:04:131:04:384:37 13.04114728AVESNES SUR HEL
25.142GHEM Michel54BELTORTUES MESL1:04:421:04:484:37 13.01116720BIERGHES
26.375HERMANS Luc59BELANPCV1:05:031:05:084:39 12.94121711LIBIN
27.1392DE MASI Gianni56BELFLEU1:05:131:05:184:39 12.91123708WANFERCEE BAULE
28.567DECLERCQ Georges51BELENJWOL1:05:441:05:524:42 12.80130695ETTERBEECK
29.1207LEFORT Jean Marie58BELENJWOL1:05:451:05:534:42 12.80133693GLABAIS
30.1255ZRINSKI Drago Karl55BELCELESTES1:05:461:05:534:42 12.80134692BOUSVAL
31.2291LACROIX Jean-Claude55BELWAL'COURSE1:05:431:06:124:43 12.73139689
32.2041DENYS Andre53BEL1:06:001:06:304:44 12.68144682CHARLEROI
33.2360MUSIAUX Marc57DEU1:06:331:06:454:46 12.63147672
34.2246LEBONNOIS Denis55FRAJC VIMOUTIER1:07:051:07:154:48 12.54151662VIMOUTIERS
35.2039ILARDO Rosario58BELSERUNNER1:07:071:07:174:48 12.53153660SAINT-NICOLAS (
36.2325LOCICERO Salvatore54ITAUAC1:07:161:07:244:48 12.51154657CHATELET
37.1048DE HERTOG Daniel50BELGRIM1:07:291:07:454:50 12.44161649GRIMBERGEN
38.2321CAZZATO Antonio57BELESM1:07:441:07:564:51 12.41165643FARCIENNES
39.2406BRUCCOLERI Paolo50ITASPRIMONT1:07:271:07:594:51 12.40167645
40.2046FRESCA Luigi56BELUACVACH1:07:551:08:034:51 12.39169637CHÂTELET
41.2048VANBELLINGHEN Victor52BELOEH1:07:591:08:094:52 12.37171635TUBIZE
42.1469QUINET J.Paul59BELFLEU1:08:101:08:244:53 12.32173632GILLY
43.2346COLONVAL Jean50BELBOUFFIOLS1:08:051:08:314:53 12.30175631
44.2355LAHAYE Rudy55BELANTILOB1:08:201:08:454:54 12.26177627MONT-SAINT-GUIB
45.45PLOYAERT Eric54BELWAL'COURSE1:08:361:08:554:55 12.23180621LOBBES
46.2395RAGOUBI Boujemaa54BEL1:09:001:09:074:56 12.20185612TAMINES
47.426QUINET Bernard57BELFLEU1:09:151:09:294:57 12.13193603GILLY
48.209GODEFRIDI Thierry58BEL1:10:141:10:205:01 11.99208579RIXENSART
49.755VAN HEULENBERGHE Frank53BEL1:10:201:10:335:02 11.95211576GENT
50.2227FONTAINE Pol58BEL1:10:181:10:345:02 11.95212576CHATELINEAU
51.1149ROBERT Guy51BELFLEUFLEU1:10:131:10:365:02 11.94214576GODARVILLE
52.2031GONDA Gilbert58BELSERSERUNNER1:10:431:10:525:03 11.90222563IVOZ-RAMET
53.2263SBRO Salvatore56BELESM1:10:451:10:545:03 11.89224562GILLY
54.2367VAN DEN EYNDE Yvan55BELCPMV1:10:511:10:555:03 11.89225559
55.745POMES Jean-Paul59BELHRC1:10:451:11:065:04 11.86231557NOBRESSART
56.2249BARBIERI Giovanni58BELBOUFFIOLS1:10:501:11:165:05 11.83232555PONT DE LOUP
57.156DUMONT J.Luc52BELACLO1:11:301:11:415:07 11.76240541LA LOUVIERE
58.2340ABRAHAM Luc52BELUSBW1:11:251:11:485:07 11.74242541WATERLOO
59.1222SORNASSE Pascal50BELSMAC1:11:371:11:535:07 11.73244536BEUZET
60.2347ABDELHAMID Rabah50BEL1:11:501:11:575:08 11.72245533
61.1263PICOTE Jose57BELFLEU1:12:181:12:385:11 11.61252522TAMINES
62.2008VENSENSIUS Michel59BELUACDILAVILE1:12:261:12:395:11 11.60253520CHATELINEAU
63.2327ARNOULD Jean Luc56BELRCNAMUR1:12:121:12:455:11 11.59255521FLAWINNE
64.2330JASSOGNE Claudy Henri55BELRCNAMUR1:12:141:12:475:11 11.58257520NAMUR
65.2343BOULANGER Joel54BELJC HSH1:12:301:12:475:11 11.58258516NALINNES
66.2058CUVELIER Luc51BELTORTUES MESL1:12:411:12:505:12 11.57259513BASSILLY
67.2264RENARD Georges59BELHRC1:12:391:13:005:12 11.55264509
68.55ROBERTI DE WINGHE Max54BELLACRONVAU1:12:381:13:075:13 11.53265509ARCHENNES
69.2382BOUFFIOUX Alain50BELJC HSH1:12:441:13:085:13 11.53266507GOZÉE
70.2366DESMET Robert59BEL1:12:551:13:305:14 11.47270502
71.561HAINAUT Charles50BEL1:13:081:13:325:15 11.46271498GERPINNES
72.1335DELCAMPE Marc53BELOXY20001:13:221:13:375:15 11.45272495LE ROEULX
73.1561VAN LAETHEM Eloi57BELFLEUJOGGPLUS1:13:261:13:465:16 11.43274492CHATELINEAU
74.2036DUBOIS Claude51BELUAC1:14:241:14:325:19 11.31280476CHATELET
75.1304LOTENS Yvan54BELTORTUES MESL1:15:041:15:235:22 11.18288462MESLIN L'EVEQUE
76.1159LAFFINEUR Christian55BELESMLA THURE1:15:051:15:295:23 11.17290460RENLIES
77.1417CLESEUR Claude58BELCELESTES1:14:571:15:315:23 11.16291461MIECRET
78.1712POSKIN Bernard58BELMSF1:15:021:15:345:23 11.16292460PERONNES-LEZ-BI
79.993LELOUP Stephan55BELRIWA1:15:191:15:385:23 11.15294455ROSIERES
80.2300CIRELLI Mario57BELCRAC1:15:401:16:245:27 11.03300446JUMET
81.2042BOUGARD Fernand57BELSERUNNER1:16:251:16:335:27 11.01305433BONCELLES
82.1480BOUCHET Fabrice50BELHRC1:15:531:16:345:27 11.01306439IZEL
83.2322MEURRENS Yvon55BELRTTC1:16:361:17:045:30 10.94311427PONT DE LOUP
84.1347DE CALUWE Jean-Pierre53BELSODIBRUG1:16:571:17:185:31 10.91315420BRUGGE
85.1153MASSART Victor56BELACLOULTRAMAR1:16:491:17:235:31 10.89316421COUILLET
86.1587BLOMMAERT Edward56BELAVN1:17:121:17:315:32 10.88321413DOHAN
87.2222PAINBLANC Didier54BELJC THIMEON1:17:441:18:125:34 10.78329401THIMEON
88.1148LAPAGLIA Bruno51BEL1:18:201:18:405:36 10.72337388GENLY
89.2232BLAREAU Eric51BEL1:18:331:18:425:37 10.71338385MAURAGE
90.1878ROMAIN Bernard52BELDELT LONG1:18:331:18:435:37 10.71339384CHASTRE
91.2229BOISDEQUIN Philippe51BELTORTUES MESL1:18:491:18:575:38 10.68341380MAFFLE
92.2203LEONARD Francis55BELUACUAC DILAVILE1:18:571:19:115:39 10.65344376RANSART
93.495DISWISCOURT Jose55BELHRC1:19:081:19:485:41 10.56355366HARINSART
94.2314DISTRAIT Tete En L'Air53BELJOGGING ET N1:19:211:19:555:42 10.55357362CHÂTELET
95.2331CASSART Jean-Luc51BELJOGGING ET N1:19:201:19:555:42 10.55358362LODELINSART
96.894LOUCHE Bernard54BELJAMES1:19:411:20:105:43 10.52363354MONT-SAINT-GUIB
97.488COLLIN Jean-Marc57BEL1:19:431:20:125:43 10.51364353CHATELET
98.792BONTE Philippe52BELJOGGANS1:19:471:20:235:44 10.49365352BRUXELLES
99.635PANNEELS Jean-Jacques57BELCS DYLE1:19:521:20:355:45 10.46366350MELLERY
100.317GUIRCHE Albert57BELSPIBOR1:20:221:20:365:45 10.46367343BOUSSU
101.2611BRUYERE Serge50BEL1:20:311:20:425:45 10.45369340FALISOLLE
102.939GORIS Leo52BEL1:20:161:20:525:46 10.42371342MEERDONK
103.242VAN ESPEN Michel54BELACLO1:20:251:21:015:46 10.41374338HAINE SAINT PIE
104.2407BUYENS Johan59BELBAV1:20:521:21:065:47 10.39377331
105.2318JANUTH Marc50BELJC THIMÉON1:20:581:21:165:48 10.37380328ROUX
106.1031DEWIGNE Bernard52BELGLOBTROT1:20:511:21:245:48 10.36382328CHASTRE
107.785SACRE Claude53BELSERSERUNNER1:21:001:21:265:48 10.35383325ANGLEUR
108.1537VAN KRUNCKELSVEN Eric57BELANTW ATHL1:20:501:21:265:48 10.35384327BERCHEM
109.1466BANDIN Marc53BELJAMES1:21:011:21:295:48 10.35386323COURT ST ETIENN
110.2219AMMAZZALUPO Paolo51BEL1:21:031:21:325:49 10.34387322CHÂTELINEAU
111.1996TONDUS Michel Marie55BEL1:21:321:22:005:51 10.28392313GERPINNES
112.869GENOT Yves53BELENJAMBEE1:22:181:22:325:53 10.21399299BRUXELLES
113.318STICKER Johan50BELOXYGENE1:23:141:23:205:56 10.12406283BIERCEE
114.522VANLOO Marc50BELRONVAU1:22:461:23:265:57 10.10407288WAVRES
115.155AKKERMANS Francois59BELBRASS1:24:131:24:386:02 9.96416265BRASSCHAAT
116.603TALLUTO Vincent51BELESMESM1:24:351:25:186:05 9.88423257MONT SUR MARCHI
117.2255DESCHUYTENEER Willy56BELTORTUES MESL1:25:191:25:226:05 9.88424247HORRUES
118.2005DELIZEE Michel59BELCRAC1:25:141:25:426:06 9.84428246GEDINNE
119.2358MUSCAS Bruno53BELCRAC1:27:091:27:336:14 9.63436219GILLY
120.2362IACOVELLI Michel55MARCRAC1:27:081:27:336:14 9.63437218
121.1145BLENDEMAN Dirk53BEL1:32:021:32:376:36 9.10456153HERDESEM
122.414PEGORARO Roberto53BELUACDILAVILE1:32:271:32:496:37 9.08457147CHATELET
123.249PIRSON Patrice52BELJCCS1:32:361:33:046:38 9.06459145SART-CUSTINNE
124.2217VANDERCAM Christian53BELJC THIMEON1:32:381:33:206:39 9.03462142GOSSELIES
125.2342MAQUET Etienne53BEL1:33:571:34:286:44 8.92468125SAMBREVILLE
126.2234DAVE Richard59BELJC THIMEON1:36:541:37:206:56 8.6647788MARCINELLE
127.2399ULAMICK Andre55BEL1:38:451:39:307:05 8.4748167
128.294WAUCAMPT Reggie58BELANTILOB1:40:221:40:547:11 8.3548549LIMAL
129.2298GIACOMELLO Oreste54BEL1:43:431:44:127:25 8.0949311
130.1318DE BLIECK Philippe57BEL1:47:161:47:537:41 7.814969BRUXELLES
131.2238DENISTY Jean55BELLIBERCHIES S1:56:321:56:368:18 7.235053COURCELLES
132.2028CALBERT Yves57BEL2:33:422:33:4210:57 5.485071HERSEAUX
DNF: abandon; DSQ: disqualifié; Vitesse en km/h
Page: [1]